Time,TemperatureF,DewpointF,PressureIn,WindDirection,WindDirectionDegrees,WindSpeedMPH,WindSpeedGustMPH,Humidity,HourlyPrecipIn,Conditions,Clouds,dailyrainin,SoftwareType,DateUTC
2013-01-09 00:03:00,35.6,28.8,29.73,NE,45,3.6,6.9,76,0.00,,,0.00,WUHU216HW,2013-01-09 06:03:00,
2013-01-09 00:08:00,35.3,28.5,29.73,ENE,68,1.8,6.9,76,0.00,,,0.00,WUHU216HW,2013-01-09 06:08:00,
2013-01-09 00:13:00,34.9,28.1,29.73,NW,315,2.0,6.7,76,0.00,,,0.00,WUHU216HW,2013-01-09 06:13:00,
2013-01-09 00:18:00,34.7,28.2,29.73,NNW,338,7.4,7.6,77,0.00,,,0.00,WUHU216HW,2013-01-09 06:18:00,
2013-01-09 00:23:00,34.6,27.7,29.73,WNW,293,1.8,7.6,76,0.00,,,0.00,WUHU216HW,2013-01-09 06:23:00,
2013-01-09 00:28:00,34.2,27.6,29.74,SW,225,3.4,9.8,77,0.00,,,0.00,WUHU216HW,2013-01-09 06:28:00,
2013-01-09 00:33:00,34.2,28.0,29.74,NNW,338,2.5,9.8,78,0.00,,,0.00,WUHU216HW,2013-01-09 06:33:00,
2013-01-09 00:38:00,34.0,27.8,29.74,NW,315,4.7,8.5,78,0.00,,,0.00,WUHU216HW,2013-01-09 06:38:00,
2013-01-09 00:43:00,34.0,27.8,29.74,ESE,113,4.5,9.6,78,0.00,,,0.00,WUHU216HW,2013-01-09 06:43:00,
2013-01-09 00:48:00,33.8,27.6,29.75,SSW,203,4.3,9.6,78,0.00,,,0.00,WUHU216HW,2013-01-09 06:48:00,
2013-01-09 00:53:00,33.5,27.3,29.75,NW,315,4.7,9.2,78,0.00,,,0.00,WUHU216HW,2013-01-09 06:53:00,
2013-01-09 00:58:00,33.5,27.6,29.76,South,180,4.7,7.8,79,0.00,,,0.00,WUHU216HW,2013-01-09 06:58:00,
2013-01-09 01:03:00,33.5,27.6,29.75,South,180,3.1,9.8,79,0.00,,,0.00,WUHU216HW,2013-01-09 07:03:00,
2013-01-09 01:08:00,33.5,27.9,29.76,NE,45,8.7,9.8,80,0.00,,,0.00,WUHU216HW,2013-01-09 07:08:00,
2013-01-09 01:13:00,33.5,27.9,29.76,NNW,338,8.5,9.8,80,0.00,,,0.00,WUHU216HW,2013-01-09 07:13:00,
2013-01-09 01:18:00,33.5,27.9,29.76,NNW,338,3.8,9.8,80,0.00,,,0.00,WUHU216HW,2013-01-09 07:18:00,
2013-01-09 01:23:00,33.5,27.9,29.76,NE,45,6.0,12.1,80,0.00,,,0.00,WUHU216HW,2013-01-09 07:23:00,
2013-01-09 01:28:00,33.5,28.3,29.76,ESE,113,6.3,12.1,81,0.00,,,0.00,WUHU216HW,2013-01-09 07:28:00,
2013-01-09 01:33:00,33.5,28.3,29.77,NW,315,7.2,10.7,81,0.00,,,0.00,WUHU216HW,2013-01-09 07:33:00,
2013-01-09 01:38:00,33.5,28.3,29.78,SSE,158,4.0,11.2,81,0.00,,,0.00,WUHU216HW,2013-01-09 07:38:00,
2013-01-09 01:43:00,33.5,28.3,29.78,SW,225,3.4,11.2,81,0.00,,,0.00,WUHU216HW,2013-01-09 07:43:00,
2013-01-09 01:48:00,33.5,28.5,29.78,NNW,338,4.7,6.3,82,0.00,,,0.00,WUHU216HW,2013-01-09 07:48:00,
2013-01-09 01:53:00,33.5,28.5,29.78,NNW,338,1.6,7.2,82,0.00,,,0.00,WUHU216HW,2013-01-09 07:53:00,
2013-01-09 01:58:00,33.5,28.5,29.78,NW,315,5.6,10.7,82,0.00,,,0.00,WUHU216HW,2013-01-09 07:58:00,
2013-01-09 02:03:00,33.5,28.3,29.79,North,0,6.9,10.7,81,0.00,,,0.00,WUHU216HW,2013-01-09 08:03:00,
2013-01-09 02:08:00,33.5,28.3,29.79,SSE,158,2.5,9.8,81,0.00,,,0.00,WUHU216HW,2013-01-09 08:08:00,
2013-01-09 02:13:00,33.5,28.5,29.79,ENE,68,4.0,6.9,82,0.00,,,0.00,WUHU216HW,2013-01-09 08:13:00,
2013-01-09 02:18:00,33.3,28.4,29.79,North,0,7.8,8.1,82,0.00,,,0.00,WUHU216HW,2013-01-09 08:18:00,
2013-01-09 02:23:00,33.1,27.9,29.79,WNW,293,1.8,10.5,81,0.00,,,0.00,WUHU216HW,2013-01-09 08:23:00,
2013-01-09 02:28:00,33.1,27.9,29.80,SSE,158,3.6,10.5,81,0.00,,,0.00,WUHU216HW,2013-01-09 08:28:00,
2013-01-09 02:33:00,32.9,28.0,29.80,NW,315,5.8,7.2,82,0.00,,,0.00,WUHU216HW,2013-01-09 08:33:00,
2013-01-09 02:38:00,32.9,27.7,29.81,South,180,5.8,7.6,81,0.00,,,0.00,WUHU216HW,2013-01-09 08:38:00,
2013-01-09 02:43:00,33.1,27.9,29.81,WSW,248,2.7,8.3,81,0.00,,,0.00,WUHU216HW,2013-01-09 08:43:00,
2013-01-09 02:48:00,32.9,27.7,29.80,South,180,1.6,8.3,81,0.00,,,0.00,WUHU216HW,2013-01-09 08:48:00,
2013-01-09 02:53:00,32.9,27.7,29.80,NE,45,6.3,6.3,81,0.00,,,0.00,WUHU216HW,2013-01-09 08:53:00,
2013-01-09 02:58:00,32.8,27.5,29.80,NNW,338,2.0,7.6,81,0.00,,,0.00,WUHU216HW,2013-01-09 08:58:00,
2013-01-09 03:03:00,32.8,27.5,29.80,SW,225,5.4,7.6,81,0.00,,,0.00,WUHU216HW,2013-01-09 09:03:00,
2013-01-09 03:08:00,32.8,27.5,29.80,NW,315,2.0,6.7,81,0.00,,,0.00,WUHU216HW,2013-01-09 09:08:00,
2013-01-09 03:13:00,32.8,27.5,29.81,NW,315,4.5,7.6,81,0.00,,,0.00,WUHU216HW,2013-01-09 09:13:00,
2013-01-09 03:18:00,32.8,27.5,29.81,SE,135,5.4,7.6,81,0.00,,,0.00,WUHU216HW,2013-01-09 09:18:00,
2013-01-09 03:23:00,32.8,27.5,29.81,NNW,338,2.9,7.6,81,0.00,,,0.00,WUHU216HW,2013-01-09 09:23:00,
2013-01-09 03:28:00,32.8,27.5,29.82,NW,315,4.0,6.3,81,0.00,,,0.00,WUHU216HW,2013-01-09 09:28:00,
2013-01-09 03:33:00,32.8,27.5,29.82,South,180,2.2,7.2,81,0.00,,,0.00,WUHU216HW,2013-01-09 09:33:00,
2013-01-09 03:38:00,32.6,27.5,29.83,SE,135,1.1,7.2,81,0.00,,,0.00,WUHU216HW,2013-01-09 09:38:00,
2013-01-09 03:43:00,32.6,27.5,29.84,NNW,338,2.0,7.4,81,0.00,,,0.00,WUHU216HW,2013-01-09 09:43:00,
2013-01-09 03:48:00,32.6,27.1,29.83,West,270,2.7,9.2,80,0.00,,,0.00,WUHU216HW,2013-01-09 09:48:00,
2013-01-09 03:53:00,32.4,27.0,29.84,SW,225,3.1,9.2,80,0.00,,,0.00,WUHU216HW,2013-01-09 09:53:00,
2013-01-09 03:58:00,32.4,27.3,29.84,WSW,248,4.0,7.6,81,0.00,,,0.00,WUHU216HW,2013-01-09 09:58:00,
2013-01-09 04:03:00,32.4,27.3,29.84,West,270,2.9,7.6,81,0.00,,,0.00,WUHU216HW,2013-01-09 10:03:00,
2013-01-09 04:08:00,32.4,27.3,29.84,WNW,293,1.3,6.0,81,0.00,,,0.00,WUHU216HW,2013-01-09 10:08:00,
2013-01-09 04:13:00,32.4,27.0,29.84,NNW,338,1.3,6.0,80,0.00,,,0.00,WUHU216HW,2013-01-09 10:13:00,
2013-01-09 04:18:00,32.4,27.0,29.84,SE,135,0.9,4.9,80,0.00,,,0.00,WUHU216HW,2013-01-09 10:18:00,
2013-01-09 04:23:00,32.2,26.8,29.84,WNW,293,5.4,5.6,80,0.00,,,0.00,WUHU216HW,2013-01-09 10:23:00,
2013-01-09 04:28:00,32.0,26.6,29.84,WNW,293,4.0,5.6,80,0.00,,,0.00,WUHU216HW,2013-01-09 10:28:00,
2013-01-09 04:33:00,32.0,26.6,29.84,WNW,293,1.8,6.3,80,0.00,,,0.00,WUHU216HW,2013-01-09 10:33:00,
2013-01-09 04:38:00,32.0,26.3,29.84,SE,135,1.1,6.3,79,0.00,,,0.00,WUHU216HW,2013-01-09 10:38:00,
2013-01-09 04:43:00,31.7,25.9,29.84,West,270,2.9,3.4,79,0.00,,,0.00,WUHU216HW,2013-01-09 10:43:00,
2013-01-09 04:48:00,31.5,25.7,29.85,WNW,293,2.5,4.9,79,0.00,,,0.00,WUHU216HW,2013-01-09 10:48:00,
2013-01-09 04:53:00,31.7,25.9,29.85,NE,45,2.0,4.9,79,0.00,,,0.00,WUHU216HW,2013-01-09 10:53:00,
2013-01-09 04:58:00,31.5,25.7,29.85,North,0,2.0,8.3,79,0.00,,,0.00,WUHU216HW,2013-01-09 10:58:00,
2013-01-09 05:03:00,31.7,25.9,29.85,ESE,113,1.1,8.3,79,0.00,,,0.00,WUHU216HW,2013-01-09 11:03:00,
2013-01-09 05:08:00,31.5,25.7,29.86,NW,315,2.9,4.7,79,0.00,,,0.00,WUHU216HW,2013-01-09 11:08:00,
2013-01-09 05:13:00,31.5,25.7,29.85,West,270,3.4,4.7,79,0.00,,,0.00,WUHU216HW,2013-01-09 11:13:00,
2013-01-09 05:18:00,31.5,25.7,29.86,WNW,293,1.6,4.7,79,0.00,,,0.00,WUHU216HW,2013-01-09 11:18:00,
2013-01-09 05:23:00,31.3,25.6,29.85,South,180,2.0,3.4,79,0.00,,,0.00,WUHU216HW,2013-01-09 11:23:00,
2013-01-09 05:28:00,31.3,25.6,29.85,WSW,248,2.0,4.3,79,0.00,,,0.00,WUHU216HW,2013-01-09 11:28:00,
2013-01-09 05:33:00,31.3,25.6,29.86,NW,315,1.6,5.6,79,0.00,,,0.00,WUHU216HW,2013-01-09 11:33:00,
2013-01-09 05:38:00,31.3,25.6,29.86,WNW,293,2.7,5.6,79,0.00,,,0.00,WUHU216HW,2013-01-09 11:38:00,
2013-01-09 05:43:00,31.5,25.7,29.86,ESE,113,2.5,6.5,79,0.00,,,0.00,WUHU216HW,2013-01-09 11:43:00,
2013-01-09 05:48:00,31.5,25.7,29.86,West,270,4.0,7.8,79,0.00,,,0.00,WUHU216HW,2013-01-09 11:48:00,
2013-01-09 05:53:00,31.3,25.6,29.86,ESE,113,4.0,9.6,79,0.00,,,0.00,WUHU216HW,2013-01-09 11:53:00,
2013-01-09 05:58:00,31.3,25.6,29.86,SE,135,2.7,9.6,79,0.00,,,0.00,WUHU216HW,2013-01-09 11:58:00,
2013-01-09 06:03:00,31.3,25.6,29.86,NE,45,5.1,7.2,79,0.00,,,0.00,WUHU216HW,2013-01-09 12:03:00,
2013-01-09 06:08:00,31.3,25.9,29.86,NW,315,2.5,7.2,80,0.00,,,0.00,WUHU216HW,2013-01-09 12:08:00,
2013-01-09 06:13:00,31.7,26.3,29.87,NW,315,4.5,5.4,80,0.00,,,0.00,WUHU216HW,2013-01-09 12:13:00,
2013-01-09 06:18:00,31.7,25.9,29.86,SSE,158,6.9,6.9,79,0.00,,,0.00,WUHU216HW,2013-01-09 12:18:00,
2013-01-09 06:23:00,31.7,25.9,29.87,ENE,68,2.5,9.6,79,0.00,,,0.00,WUHU216HW,2013-01-09 12:23:00,
2013-01-09 06:28:00,31.7,25.9,29.87,ESE,113,4.0,9.6,79,0.00,,,0.00,WUHU216HW,2013-01-09 12:28:00,
2013-01-09 06:33:00,31.7,25.9,29.88,SSE,158,3.6,6.7,79,0.00,,,0.00,WUHU216HW,2013-01-09 12:33:00,
2013-01-09 06:38:00,31.7,25.9,29.88,NNW,338,2.7,6.7,79,0.00,,,0.00,WUHU216HW,2013-01-09 12:38:00,
2013-01-09 06:43:00,31.9,26.1,29.89,NW,315,3.8,6.0,79,0.00,,,0.00,WUHU216HW,2013-01-09 12:43:00,
2013-01-09 06:48:00,31.9,25.8,29.89,North,0,6.3,6.9,78,0.00,,,0.00,WUHU216HW,2013-01-09 12:48:00,
2013-01-09 06:53:00,31.9,25.8,29.89,WSW,248,2.7,6.9,78,0.00,,,0.00,WUHU216HW,2013-01-09 12:53:00,
2013-01-09 06:58:00,31.9,25.8,29.90,WNW,293,1.3,6.3,78,0.00,,,0.00,WUHU216HW,2013-01-09 12:58:00,
2013-01-09 07:03:00,32.0,26.0,29.90,WSW,248,4.7,5.4,78,0.00,,,0.00,WUHU216HW,2013-01-09 13:03:00,
2013-01-09 07:08:00,31.9,25.5,29.90,NNW,338,2.2,8.3,77,0.00,,,0.00,WUHU216HW,2013-01-09 13:08:00,
2013-01-09 07:13:00,31.9,25.5,29.90,SW,225,2.7,8.3,77,0.00,,,0.00,WUHU216HW,2013-01-09 13:13:00,
2013-01-09 07:18:00,32.0,25.7,29.90,NW,315,1.1,6.7,77,0.00,,,0.00,WUHU216HW,2013-01-09 13:18:00,
2013-01-09 07:23:00,32.0,25.7,29.90,South,180,2.9,6.7,77,0.00,,,0.00,WUHU216HW,2013-01-09 13:23:00,
2013-01-09 07:28:00,32.0,25.7,29.90,ESE,113,3.4,5.1,77,0.00,,,0.00,WUHU216HW,2013-01-09 13:28:00,
2013-01-09 07:33:00,31.9,25.5,29.90,NW,315,2.9,5.6,77,0.00,,,0.00,WUHU216HW,2013-01-09 13:33:00,
2013-01-09 07:38:00,31.7,25.3,29.91,North,0,1.8,5.6,77,0.00,,,0.00,WUHU216HW,2013-01-09 13:38:00,
2013-01-09 07:43:00,31.5,25.1,29.90,SW,225,3.6,4.5,77,0.00,,,0.00,WUHU216HW,2013-01-09 13:43:00,
2013-01-09 07:48:00,31.5,25.1,29.91,WNW,293,4.0,4.9,77,0.00,,,0.00,WUHU216HW,2013-01-09 13:48:00,
2013-01-09 07:53:00,31.9,25.5,29.91,WNW,293,4.9,5.1,77,0.00,,,0.00,WUHU216HW,2013-01-09 13:53:00,
2013-01-09 07:58:00,31.9,25.2,29.91,West,270,4.7,6.7,76,0.00,,,0.00,WUHU216HW,2013-01-09 13:58:00,
2013-01-09 08:03:00,32.0,25.4,29.91,SE,135,2.2,6.9,76,0.00,,,0.00,WUHU216HW,2013-01-09 14:03:00,
2013-01-09 08:08:00,32.2,25.5,29.91,West,270,4.0,6.9,76,0.00,,,0.00,WUHU216HW,2013-01-09 14:08:00,
2013-01-09 08:13:00,32.6,25.5,29.91,NW,315,4.0,9.4,75,0.00,,,0.00,WUHU216HW,2013-01-09 14:13:00,
2013-01-09 08:18:00,32.8,25.7,29.92,NW,315,2.2,9.4,75,0.00,,,0.00,WUHU216HW,2013-01-09 14:18:00,
2013-01-09 08:23:00,32.8,25.7,29.92,WNW,293,3.4,8.5,75,0.00,,,0.00,WUHU216HW,2013-01-09 14:23:00,
2013-01-09 08:28:00,32.9,25.8,29.92,South,180,4.7,8.5,75,0.00,,,0.00,WUHU216HW,2013-01-09 14:28:00,
2013-01-09 08:33:00,33.1,25.7,29.92,NNW,338,3.8,7.6,74,0.00,,,0.00,WUHU216HW,2013-01-09 14:33:00,
2013-01-09 08:38:00,33.1,25.4,29.92,SW,225,2.0,8.5,73,0.00,,,0.00,WUHU216HW,2013-01-09 14:38:00,
2013-01-09 08:43:00,33.1,25.4,29.92,SW,225,2.5,9.2,73,0.00,,,0.00,WUHU216HW,2013-01-09 14:43:00,
2013-01-09 08:48:00,33.3,25.5,29.93,SW,225,4.9,9.2,73,0.00,,,0.00,WUHU216HW,2013-01-09 14:48:00,
2013-01-09 08:53:00,33.3,25.5,29.93,ESE,113,3.4,8.3,73,0.00,,,0.00,WUHU216HW,2013-01-09 14:53:00,
2013-01-09 08:58:00,33.5,25.4,29.93,West,270,3.8,8.3,72,0.00,,,0.00,WUHU216HW,2013-01-09 14:58:00,
2013-01-09 09:03:00,33.7,25.2,29.93,WNW,293,4.7,7.2,71,0.00,,,0.00,WUHU216HW,2013-01-09 15:03:00,
2013-01-09 09:08:00,33.7,25.2,29.94,SE,135,4.9,7.2,71,0.00,,,0.00,WUHU216HW,2013-01-09 15:08:00,
2013-01-09 09:13:00,33.8,25.0,29.94,NNW,338,3.4,6.9,70,0.00,,,0.00,WUHU216HW,2013-01-09 15:13:00,
2013-01-09 09:18:00,34.0,25.2,29.94,NNW,338,1.8,6.9,70,0.00,,,0.00,WUHU216HW,2013-01-09 15:18:00,
2013-01-09 09:23:00,34.0,25.2,29.94,WSW,248,4.0,6.9,70,0.00,,,0.00,WUHU216HW,2013-01-09 15:23:00,
2013-01-09 09:28:00,34.0,24.8,29.94,NW,315,8.3,8.3,69,0.00,,,0.00,WUHU216HW,2013-01-09 15:28:00,
2013-01-09 09:33:00,34.2,25.4,29.94,ESE,113,6.5,10.7,70,0.00,,,0.00,WUHU216HW,2013-01-09 15:33:00,
2013-01-09 09:38:00,34.2,25.0,29.94,East,90,3.6,10.7,69,0.00,,,0.00,WUHU216HW,2013-01-09 15:38:00,
2013-01-09 09:43:00,34.4,25.2,29.95,South,180,6.5,9.8,69,0.00,,,0.00,WUHU216HW,2013-01-09 15:43:00,
2013-01-09 09:48:00,34.4,24.8,29.95,NNW,338,3.4,11.4,68,0.00,,,0.00,WUHU216HW,2013-01-09 15:48:00,
2013-01-09 09:53:00,34.6,25.0,29.95,SE,135,6.3,11.4,68,0.00,,,0.00,WUHU216HW,2013-01-09 15:53:00,
2013-01-09 09:58:00,34.6,25.0,29.96,NW,315,2.0,11.4,68,0.00,,,0.00,WUHU216HW,2013-01-09 15:58:00,
2013-01-09 10:03:00,34.7,24.8,29.96,West,270,3.4,9.8,67,0.00,,,0.00,WUHU216HW,2013-01-09 16:03:00,
2013-01-09 10:08:00,34.9,25.0,29.97,NNW,338,4.7,9.4,67,0.00,,,0.00,WUHU216HW,2013-01-09 16:08:00,
2013-01-09 10:13:00,34.9,24.7,29.98,South,180,1.6,8.9,66,0.00,,,0.00,WUHU216HW,2013-01-09 16:13:00,
2013-01-09 10:18:00,35.1,24.8,29.99,West,270,4.7,8.5,66,0.00,,,0.00,WUHU216HW,2013-01-09 16:18:00,
2013-01-09 10:23:00,35.5,24.8,29.98,North,0,2.5,8.5,65,0.00,,,0.00,WUHU216HW,2013-01-09 16:23:00,
2013-01-09 10:28:00,35.5,24.5,29.99,NW,315,6.3,10.5,64,0.00,,,0.00,WUHU216HW,2013-01-09 16:28:00,
2013-01-09 10:33:00,35.6,24.7,29.99,NW,315,7.2,10.5,64,0.00,,,0.00,WUHU216HW,2013-01-09 16:33:00,
2013-01-09 10:38:00,35.6,24.7,29.99,SW,225,8.1,8.1,64,0.00,,,0.00,WUHU216HW,2013-01-09 16:38:00,
2013-01-09 10:43:00,35.8,24.5,29.99,NW,315,2.5,8.9,63,0.00,,,0.00,WUHU216HW,2013-01-09 16:43:00,
2013-01-09 10:48:00,36.0,24.7,29.99,WNW,293,2.5,8.9,63,0.00,,,0.00,WUHU216HW,2013-01-09 16:48:00,
2013-01-09 10:53:00,36.2,24.5,29.99,West,270,6.3,6.3,62,0.00,,,0.00,WUHU216HW,2013-01-09 16:53:00,
2013-01-09 10:58:00,36.4,24.9,29.99,NNW,338,7.8,7.8,63,0.00,,,0.00,WUHU216HW,2013-01-09 16:58:00,
2013-01-09 11:03:00,36.4,24.6,30.01,WSW,248,3.4,7.8,62,0.00,,,0.00,WUHU216HW,2013-01-09 17:03:00,
2013-01-09 11:08:00,36.5,24.4,30.01,NE,45,5.4,9.2,61,0.00,,,0.00,WUHU216HW,2013-01-09 17:08:00,
2013-01-09 11:13:00,36.7,24.6,30.00,WNW,293,5.4,9.2,61,0.00,,,0.00,WUHU216HW,2013-01-09 17:13:00,
2013-01-09 11:18:00,36.9,24.4,30.00,NW,315,6.3,11.4,60,0.00,,,0.00,WUHU216HW,2013-01-09 17:18:00,
2013-01-09 11:23:00,37.1,24.5,30.01,South,180,6.3,11.4,60,0.00,,,0.00,WUHU216HW,2013-01-09 17:23:00,
2013-01-09 11:28:00,37.4,24.8,30.01,ESE,113,5.1,9.8,60,0.00,,,0.00,WUHU216HW,2013-01-09 17:28:00,
2013-01-09 11:33:00,38.0,25.8,30.00,SE,135,4.7,7.8,61,0.00,,,0.00,WUHU216HW,2013-01-09 17:33:00,
2013-01-09 11:38:00,38.2,24.7,30.01,NW,315,5.4,8.5,58,0.00,,,0.00,WUHU216HW,2013-01-09 17:38:00,
2013-01-09 11:43:00,39.2,25.6,30.02,NNW,338,5.4,8.5,58,0.00,,,0.00,WUHU216HW,2013-01-09 17:43:00,
2013-01-09 11:48:00,41.0,26.5,30.01,NW,315,2.5,7.6,56,0.00,,,0.00,WUHU216HW,2013-01-09 17:48:00,
2013-01-09 11:53:00,44.1,28.0,30.02,SE,135,6.5,6.5,53,0.00,,,0.00,WUHU216HW,2013-01-09 17:53:00,
2013-01-09 11:58:00,45.0,26.5,30.02,WNW,293,1.3,7.8,48,0.00,,,0.00,WUHU216HW,2013-01-09 17:58:00,
2013-01-09 12:03:00,44.3,25.2,30.02,North,0,5.1,8.1,47,0.00,,,0.00,WUHU216HW,2013-01-09 18:03:00,
2013-01-09 12:08:00,44.8,25.2,30.03,NNW,338,6.3,8.1,46,0.00,,,0.00,WUHU216HW,2013-01-09 18:08:00,
2013-01-09 12:13:00,45.5,24.8,30.02,NNW,338,4.5,8.5,44,0.00,,,0.00,WUHU216HW,2013-01-09 18:13:00,
2013-01-09 12:18:00,45.2,24.4,30.03,NW,315,6.7,8.5,44,0.00,,,0.00,WUHU216HW,2013-01-09 18:18:00,
2013-01-09 12:23:00,45.0,24.3,30.03,WSW,248,8.5,9.6,44,0.00,,,0.00,WUHU216HW,2013-01-09 18:23:00,
2013-01-09 12:28:00,46.1,25.2,30.03,North,0,6.9,10.5,44,0.00,,,0.00,WUHU216HW,2013-01-09 18:28:00,
2013-01-09 12:33:00,47.0,25.5,30.03,SE,135,8.5,10.5,43,0.00,,,0.00,WUHU216HW,2013-01-09 18:33:00,
2013-01-09 12:38:00,47.5,25.5,30.03,NNW,338,4.3,9.4,42,0.00,,,0.00,WUHU216HW,2013-01-09 18:38:00,
2013-01-09 12:41:00,47.9,24.7,30.04,South,180,8.9,11.6,40,0.00,,,0.00,WUHU216HW,2013-01-09 18:41:00,
2013-01-09 12:44:00,47.9,25.2,30.04,SW,225,6.3,12.1,41,0.00,,,0.00,WUHU216HW,2013-01-09 18:44:00,
2013-01-09 12:45:00,47.9,24.7,30.04,WNW,293,12.5,12.5,40,0.00,,,0.00,WUHU216HW,2013-01-09 18:45:00,
2013-01-09 12:48:00,47.9,24.7,30.04,SE,135,7.6,12.5,40,0.00,,,0.00,WUHU216HW,2013-01-09 18:48:00,
2013-01-09 12:49:00,47.9,25.2,30.05,South,180,5.6,12.5,41,0.00,,,0.00,WUHU216HW,2013-01-09 18:49:00,
2013-01-09 12:54:00,49.3,25.3,30.05,SE,135,5.8,12.5,39,0.00,,,0.00,WUHU216HW,2013-01-09 18:54:00,
2013-01-09 12:59:00,48.8,24.9,30.05,SW,225,7.6,9.8,39,0.00,,,0.00,WUHU216HW,2013-01-09 18:59:00,
2013-01-09 13:04:00,48.8,24.1,30.07,WSW,248,8.7,9.8,38,0.00,,,0.00,WUHU216HW,2013-01-09 19:04:00,
2013-01-09 13:09:00,47.3,24.2,30.07,SW,225,6.3,8.7,40,0.00,,,0.00,WUHU216HW,2013-01-09 19:09:00,
2013-01-09 13:14:00,48.2,24.4,30.07,South,180,3.8,12.1,39,0.00,,,0.00,WUHU216HW,2013-01-09 19:14:00,
2013-01-09 13:19:00,48.6,24.7,30.07,WNW,293,5.1,12.1,39,0.00,,,0.00,WUHU216HW,2013-01-09 19:19:00,
2013-01-09 13:24:00,50.6,26.5,30.08,NW,315,4.5,9.2,39,0.00,,,0.00,WUHU216HW,2013-01-09 19:24:00,
2013-01-09 13:29:00,50.4,26.3,30.08,NW,315,4.0,9.4,39,0.00,,,0.00,WUHU216HW,2013-01-09 19:29:00,
2013-01-09 13:34:00,48.1,23.5,30.09,SE,135,6.3,9.4,38,0.00,,,0.00,WUHU216HW,2013-01-09 19:34:00,
2013-01-09 13:39:00,49.0,24.3,30.10,WNW,293,3.8,9.4,38,0.00,,,0.00,WUHU216HW,2013-01-09 19:39:00,
2013-01-09 13:44:00,48.1,23.5,30.10,SSE,158,6.0,12.1,38,0.00,,,0.00,WUHU216HW,2013-01-09 19:44:00,
2013-01-09 13:49:00,47.3,22.9,30.10,SE,135,6.9,12.1,38,0.00,,,0.00,WUHU216HW,2013-01-09 19:49:00,
2013-01-09 13:54:00,48.2,24.4,30.10,SE,135,9.8,11.9,39,0.00,,,0.00,WUHU216HW,2013-01-09 19:54:00,
2013-01-09 13:59:00,49.0,24.3,30.11,ESE,113,6.7,12.3,38,0.00,,,0.00,WUHU216HW,2013-01-09 19:59:00,
2013-01-09 14:04:00,50.4,27.0,30.11,NE,45,3.4,12.3,40,0.00,,,0.00,WUHU216HW,2013-01-09 20:04:00,
2013-01-09 14:09:00,51.1,24.2,30.11,WNW,293,3.1,8.3,35,0.00,,,0.00,WUHU216HW,2013-01-09 20:09:00,
2013-01-09 14:14:00,50.4,25.6,30.11,North,0,6.9,8.9,38,0.00,,,0.00,WUHU216HW,2013-01-09 20:14:00,
2013-01-09 14:19:00,50.6,25.1,30.12,SE,135,4.9,9.6,37,0.00,,,0.00,WUHU216HW,2013-01-09 20:19:00,
2013-01-09 14:24:00,51.1,24.8,30.13,NNW,338,3.4,9.6,36,0.00,,,0.00,WUHU216HW,2013-01-09 20:24:00,
2013-01-09 14:29:00,49.7,23.6,30.14,SW,225,6.3,6.3,36,0.00,,,0.00,WUHU216HW,2013-01-09 20:29:00,
2013-01-09 14:34:00,48.8,23.5,30.15,SSE,158,2.5,10.1,37,0.00,,,0.00,WUHU216HW,2013-01-09 20:34:00,
2013-01-09 14:40:00,48.1,22.9,30.14,NW,315,4.5,10.1,37,0.00,,,0.00,WUHU216HW,2013-01-09 20:40:00,
2013-01-09 14:44:00,47.3,22.9,30.15,SW,225,4.9,9.6,38,0.00,,,0.00,WUHU216HW,2013-01-09 20:44:00,
2013-01-09 14:50:00,47.9,23.4,30.16,WNW,293,6.3,8.3,38,0.00,,,0.00,WUHU216HW,2013-01-09 20:50:00,
2013-01-09 14:54:00,50.0,24.6,30.16,NNW,338,7.2,8.5,37,0.00,,,0.00,WUHU216HW,2013-01-09 20:54:00,
2013-01-09 14:59:00,50.4,25.6,30.16,WSW,248,1.6,8.5,38,0.00,,,0.00,WUHU216HW,2013-01-09 20:59:00,
2013-01-09 15:05:00,50.8,25.2,30.17,ESE,113,1.8,7.6,37,0.00,,,0.00,WUHU216HW,2013-01-09 21:05:00,
2013-01-09 15:09:00,50.0,25.3,30.17,SW,225,5.6,7.4,38,0.00,,,0.00,WUHU216HW,2013-01-09 21:09:00,
2013-01-09 15:15:00,51.1,26.3,30.18,North,0,4.0,5.6,38,0.00,,,0.00,WUHU216HW,2013-01-09 21:15:00,
2013-01-09 15:19:00,50.2,24.8,30.18,NW,315,2.9,6.3,37,0.00,,,0.00,WUHU216HW,2013-01-09 21:19:00,
2013-01-09 15:24:00,47.3,22.9,30.18,WNW,293,2.5,6.3,38,0.00,,,0.00,WUHU216HW,2013-01-09 21:24:00,
2013-01-09 15:30:00,47.2,22.7,30.18,WNW,293,4.9,4.9,38,0.00,,,0.00,WUHU216HW,2013-01-09 21:30:00,
2013-01-09 15:35:00,46.1,22.4,30.19,WSW,248,1.8,4.9,39,0.00,,,0.00,WUHU216HW,2013-01-09 21:35:00,
2013-01-09 15:40:00,45.5,23.7,30.19,South,180,2.7,5.6,42,0.00,,,0.00,WUHU216HW,2013-01-09 21:40:00,
2013-01-09 15:45:00,47.0,24.4,30.19,North,0,6.3,6.3,41,0.00,,,0.00,WUHU216HW,2013-01-09 21:45:00,
2013-01-09 15:50:00,45.5,24.2,30.19,NNW,338,2.0,6.3,43,0.00,,,0.00,WUHU216HW,2013-01-09 21:50:00,
2013-01-09 15:55:00,45.4,24.6,30.19,NW,315,1.1,6.9,44,0.00,,,0.00,WUHU216HW,2013-01-09 21:55:00,
2013-01-09 16:00:00,45.7,24.9,30.19,SSE,158,1.8,6.9,44,0.00,,,0.00,WUHU216HW,2013-01-09 22:00:00,
2013-01-09 16:05:00,44.6,23.9,30.19,North,0,6.0,6.7,44,0.00,,,0.00,WUHU216HW,2013-01-09 22:05:00,
2013-01-09 16:10:00,41.8,22.3,30.20,North,0,3.1,11.0,46,0.00,,,0.00,WUHU216HW,2013-01-09 22:10:00,
2013-01-09 16:15:00,40.1,21.9,30.20,SE,135,3.4,11.0,48,0.00,,,0.00,WUHU216HW,2013-01-09 22:15:00,
2013-01-09 16:20:00,39.1,21.4,30.20,WSW,248,2.0,9.2,49,0.00,,,0.00,WUHU216HW,2013-01-09 22:20:00,
2013-01-09 16:25:00,38.3,21.8,30.20,SW,225,5.6,8.7,51,0.00,,,0.00,WUHU216HW,2013-01-09 22:25:00,
2013-01-09 16:30:00,37.6,21.5,30.20,South,180,6.0,8.7,52,0.00,,,0.00,WUHU216HW,2013-01-09 22:30:00,
2013-01-09 16:35:00,37.1,21.5,30.20,SE,135,6.7,7.8,53,0.00,,,0.00,WUHU216HW,2013-01-09 22:35:00,
2013-01-09 16:40:00,36.5,21.4,30.20,NW,315,0.7,7.6,54,0.00,,,0.00,WUHU216HW,2013-01-09 22:40:00,
2013-01-09 16:45:00,36.2,21.5,30.20,WSW,248,2.5,7.6,55,0.00,,,0.00,WUHU216HW,2013-01-09 22:45:00,
2013-01-09 16:50:00,35.6,21.1,30.20,ESE,113,3.4,7.4,55,0.00,,,0.00,WUHU216HW,2013-01-09 22:50:00,
2013-01-09 16:55:00,35.3,21.2,30.21,NW,315,4.0,7.4,56,0.00,,,0.00,WUHU216HW,2013-01-09 22:55:00,
2013-01-09 17:00:00,35.1,21.4,30.21,WNW,293,2.0,5.6,57,0.00,,,0.00,WUHU216HW,2013-01-09 23:00:00,
2013-01-09 17:05:00,34.7,20.6,30.21,NW,315,2.2,5.6,56,0.00,,,0.00,WUHU216HW,2013-01-09 23:05:00,
2013-01-09 17:10:00,34.6,20.9,30.21,SE,135,4.7,5.4,57,0.00,,,0.00,WUHU216HW,2013-01-09 23:10:00,
2013-01-09 17:15:00,34.2,20.9,30.21,NNW,338,4.0,7.2,58,0.00,,,0.00,WUHU216HW,2013-01-09 23:15:00,
2013-01-09 17:20:00,34.0,21.2,30.21,WNW,293,6.9,7.2,59,0.00,,,0.00,WUHU216HW,2013-01-09 23:20:00,
2013-01-09 17:25:00,34.0,21.2,30.22,North,0,3.4,6.9,59,0.00,,,0.00,WUHU216HW,2013-01-09 23:25:00,
2013-01-09 17:30:00,33.8,20.5,30.21,SSE,158,3.4,6.9,58,0.00,,,0.00,WUHU216HW,2013-01-09 23:30:00,
2013-01-09 17:35:00,33.5,20.7,30.21,North,0,5.4,5.4,59,0.00,,,0.00,WUHU216HW,2013-01-09 23:35:00,
2013-01-09 17:40:00,33.3,21.0,30.21,SE,135,1.8,8.3,60,0.00,,,0.00,WUHU216HW,2013-01-09 23:40:00,
2013-01-09 17:45:00,33.5,21.1,30.21,NW,315,2.5,8.3,60,0.00,,,0.00,WUHU216HW,2013-01-09 23:45:00,
2013-01-09 17:50:00,33.5,21.1,30.21,North,0,2.9,7.6,60,0.00,,,0.00,WUHU216HW,2013-01-09 23:50:00,
2013-01-09 17:55:00,33.1,20.8,30.22,SW,225,4.5,7.6,60,0.00,,,0.00,WUHU216HW,2013-01-09 23:55:00,
2013-01-09 18:00:00,33.1,20.8,30.22,SW,225,1.8,6.5,60,0.00,,,0.00,WUHU216HW,2013-01-10 00:00:00,
2013-01-09 18:05:00,32.8,20.8,30.22,NNW,338,2.0,6.7,61,0.00,,,0.00,WUHU216HW,2013-01-10 00:05:00,
2013-01-09 18:10:00,32.8,21.2,30.23,SW,225,5.4,6.7,62,0.00,,,0.00,WUHU216HW,2013-01-10 00:10:00,
2013-01-09 18:15:00,32.8,20.8,30.23,NNW,338,2.0,6.5,61,0.00,,,0.00,WUHU216HW,2013-01-10 00:15:00,
2013-01-09 18:20:00,32.6,21.0,30.23,South,180,8.5,8.5,62,0.00,,,0.00,WUHU216HW,2013-01-10 00:20:00,
2013-01-09 18:25:00,32.4,20.9,30.22,WNW,293,6.0,8.5,62,0.00,,,0.00,WUHU216HW,2013-01-10 00:25:00,
2013-01-09 18:30:00,32.4,21.3,30.23,NW,315,5.8,8.5,63,0.00,,,0.00,WUHU216HW,2013-01-10 00:30:00,
2013-01-09 18:35:00,32.2,21.1,30.23,North,0,7.6,7.6,63,0.00,,,0.00,WUHU216HW,2013-01-10 00:35:00,
2013-01-09 18:40:00,32.0,21.2,30.23,WNW,293,3.8,7.6,64,0.00,,,0.00,WUHU216HW,2013-01-10 00:40:00,
2013-01-09 18:45:00,32.0,21.2,30.23,North,0,5.4,6.3,64,0.00,,,0.00,WUHU216HW,2013-01-10 00:45:00,
2013-01-09 18:50:00,32.0,21.6,30.23,South,180,6.9,8.3,65,0.00,,,0.00,WUHU216HW,2013-01-10 00:50:00,
2013-01-09 18:55:00,31.9,21.4,30.23,WNW,293,5.8,8.5,65,0.00,,,0.00,WUHU216HW,2013-01-10 00:55:00,
2013-01-09 19:00:00,31.9,21.1,30.23,South,180,5.4,8.5,64,0.00,,,0.00,WUHU216HW,2013-01-10 01:00:00,
2013-01-09 19:05:00,31.5,21.1,30.23,North,0,5.8,6.3,65,0.00,,,0.00,WUHU216HW,2013-01-10 01:05:00,
2013-01-09 19:10:00,31.5,21.1,30.22,North,0,5.4,6.3,65,0.00,,,0.00,WUHU216HW,2013-01-10 01:10:00,
2013-01-09 19:15:00,31.3,21.2,30.22,NW,315,6.3,6.7,66,0.00,,,0.00,WUHU216HW,2013-01-10 01:15:00,
2013-01-09 19:20:00,31.7,21.6,30.22,SW,225,3.4,7.6,66,0.00,,,0.00,WUHU216HW,2013-01-10 01:20:00,
2013-01-09 19:25:00,31.5,21.4,30.23,SE,135,3.8,7.6,66,0.00,,,0.00,WUHU216HW,2013-01-10 01:25:00,
2013-01-09 19:30:00,31.5,21.4,30.23,WNW,293,4.7,7.2,66,0.00,,,0.00,WUHU216HW,2013-01-10 01:30:00,
2013-01-09 19:35:00,31.3,21.2,30.23,NW,315,3.8,7.4,66,0.00,,,0.00,WUHU216HW,2013-01-10 01:35:00,
2013-01-09 19:40:00,31.3,21.2,30.23,North,0,3.4,7.4,66,0.00,,,0.00,WUHU216HW,2013-01-10 01:40:00,
2013-01-09 19:45:00,31.3,21.2,30.23,WNW,293,2.2,6.0,66,0.00,,,0.00,WUHU216HW,2013-01-10 01:45:00,
2013-01-09 19:50:00,31.1,21.1,30.23,SE,135,1.1,4.9,66,0.00,,,0.00,WUHU216HW,2013-01-10 01:50:00,
2013-01-09 19:55:00,31.0,20.9,30.23,NW,315,1.6,4.9,66,0.00,,,0.00,WUHU216HW,2013-01-10 01:55:00,
2013-01-09 20:00:00,31.0,20.9,30.23,SSW,203,2.5,4.3,66,0.00,,,0.00,WUHU216HW,2013-01-10 02:00:00,
2013-01-09 20:05:00,31.0,20.9,30.23,WSW,248,0.4,6.3,66,0.00,,,0.00,WUHU216HW,2013-01-10 02:05:00,
2013-01-09 20:10:00,31.0,20.9,30.23,SW,225,1.6,6.3,66,0.00,,,0.00,WUHU216HW,2013-01-10 02:10:00,
2013-01-09 20:15:00,31.0,20.9,30.23,NNW,338,1.1,3.4,66,0.00,,,0.00,WUHU216HW,2013-01-10 02:15:00,
2013-01-09 20:20:00,31.1,21.1,30.23,West,270,0.0,3.4,66,0.00,,,0.00,WUHU216HW,2013-01-10 02:20:00,
2013-01-09 20:25:00,30.8,20.3,30.23,East,90,0.2,3.4,65,0.00,,,0.00,WUHU216HW,2013-01-10 02:25:00,
2013-01-09 20:30:00,29.9,19.4,30.24,ESE,113,0.9,2.0,65,0.00,,,0.00,WUHU216HW,2013-01-10 02:30:00,
2013-01-09 20:35:00,29.2,18.8,30.24,ESE,113,2.5,3.4,65,0.00,,,0.00,WUHU216HW,2013-01-10 02:35:00,
2013-01-09 20:40:00,28.8,18.6,30.23,East,90,1.3,3.4,65,0.00,,,0.00,WUHU216HW,2013-01-10 02:40:00,
2013-01-09 20:45:00,28.4,18.5,30.23,East,90,1.3,2.5,66,0.00,,,0.00,WUHU216HW,2013-01-10 02:45:00,
2013-01-09 20:50:00,28.1,18.2,30.23,East,90,1.8,1.8,66,0.00,,,0.00,WUHU216HW,2013-01-10 02:50:00,
2013-01-09 20:55:00,27.7,17.8,30.23,ESE,113,0.4,2.0,66,0.00,,,0.00,WUHU216HW,2013-01-10 02:55:00,
2013-01-09 21:00:00,27.4,17.5,30.24,East,90,1.1,2.5,66,0.00,,,0.00,WUHU216HW,2013-01-10 03:00:00,
2013-01-09 21:05:00,27.2,18.0,30.23,East,90,1.8,2.5,68,0.00,,,0.00,WUHU216HW,2013-01-10 03:05:00,
2013-01-09 21:10:00,27.0,18.2,30.23,ESE,113,0.9,2.0,69,0.00,,,0.00,WUHU216HW,2013-01-10 03:10:00,
2013-01-09 21:15:00,26.5,17.6,30.23,ESE,113,1.8,2.9,69,0.00,,,0.00,WUHU216HW,2013-01-10 03:15:00,
2013-01-09 21:20:00,26.3,17.5,30.23,East,90,1.3,2.9,69,0.00,,,0.00,WUHU216HW,2013-01-10 03:20:00,
2013-01-09 21:25:00,25.9,18.1,30.23,East,90,1.8,2.5,72,0.00,,,0.00,WUHU216HW,2013-01-10 03:25:00,
2013-01-09 21:30:00,26.1,17.9,30.23,East,90,2.7,2.9,71,0.00,,,0.00,WUHU216HW,2013-01-10 03:30:00,
2013-01-09 21:35:00,25.9,18.1,30.23,East,90,2.0,2.9,72,0.00,,,0.00,WUHU216HW,2013-01-10 03:35:00,
2013-01-09 21:40:00,25.7,17.9,30.23,East,90,1.8,2.7,72,0.00,,,0.00,WUHU216HW,2013-01-10 03:40:00,
2013-01-09 21:45:00,25.7,17.9,30.23,ESE,113,1.1,2.5,72,0.00,,,0.00,WUHU216HW,2013-01-10 03:45:00,
2013-01-09 21:50:00,25.4,17.6,30.23,ESE,113,1.6,2.2,72,0.00,,,0.00,WUHU216HW,2013-01-10 03:50:00,
2013-01-09 21:55:00,25.4,17.9,30.22,ESE,113,2.5,2.5,73,0.00,,,0.00,WUHU216HW,2013-01-10 03:55:00,
2013-01-09 22:00:00,25.4,17.9,30.22,ESE,113,2.9,3.4,73,0.00,,,0.00,WUHU216HW,2013-01-10 04:00:00,
2013-01-09 22:05:00,25.6,18.4,30.22,ESE,113,2.9,3.6,74,0.00,,,0.00,WUHU216HW,2013-01-10 04:05:00,
2013-01-09 22:10:00,25.7,18.3,30.22,East,90,2.5,3.6,73,0.00,,,0.00,WUHU216HW,2013-01-10 04:10:00,
2013-01-09 22:15:00,25.9,18.1,30.22,ESE,113,2.5,4.3,72,0.00,,,0.00,WUHU216HW,2013-01-10 04:15:00,
2013-01-09 22:20:00,25.7,17.9,30.22,East,90,3.1,4.3,72,0.00,,,0.00,WUHU216HW,2013-01-10 04:20:00,
2013-01-09 22:25:00,25.6,17.7,30.22,East,90,2.2,3.8,72,0.00,,,0.00,WUHU216HW,2013-01-10 04:25:00,
2013-01-09 22:30:00,25.4,17.6,30.22,East,90,1.8,3.8,72,0.00,,,0.00,WUHU216HW,2013-01-10 04:30:00,
2013-01-09 22:35:00,25.0,18.2,30.21,East,90,1.8,3.4,75,0.00,,,0.00,WUHU216HW,2013-01-10 04:35:00,
2013-01-09 22:40:00,24.5,16.8,30.22,SE,135,1.1,2.5,72,0.00,,,0.00,WUHU216HW,2013-01-10 04:40:00,
2013-01-09 22:45:00,23.4,16.7,30.22,ESE,113,1.1,2.5,75,0.00,,,0.00,WUHU216HW,2013-01-10 04:45:00,
2013-01-09 22:50:00,22.9,15.9,30.22,ESE,113,1.1,2.0,74,0.00,,,0.00,WUHU216HW,2013-01-10 04:50:00,
2013-01-09 22:55:00,22.7,15.9,30.23,ESE,113,2.5,2.5,75,0.00,,,0.00,WUHU216HW,2013-01-10 04:55:00,
2013-01-09 23:00:00,22.7,15.9,30.23,ESE,113,2.5,2.7,75,0.00,,,0.00,WUHU216HW,2013-01-10 05:00:00,
2013-01-09 23:01:00,22.7,16.6,30.23,East,90,1.1,2.7,77,0.00,,,0.00,WUHU216HW,2013-01-10 05:01:00,
2013-01-09 23:06:00,23.0,16.9,30.23,East,90,1.8,2.9,77,0.00,,,0.00,WUHU216HW,2013-01-10 05:06:00,
2013-01-09 23:11:00,23.4,16.9,30.23,East,90,1.8,2.9,76,0.00,,,0.00,WUHU216HW,2013-01-10 05:11:00,
2013-01-09 23:16:00,23.4,16.7,30.23,ESE,113,1.3,2.0,75,0.00,,,0.00,WUHU216HW,2013-01-10 05:16:00,
2013-01-09 23:21:00,23.0,16.3,30.23,ESE,113,0.7,2.0,75,0.00,,,0.00,WUHU216HW,2013-01-10 05:21:00,
2013-01-09 23:26:00,22.3,15.8,30.23,ESE,113,1.3,1.8,76,0.00,,,0.00,WUHU216HW,2013-01-10 05:26:00,
2013-01-09 23:31:00,22.1,16.0,30.23,ESE,113,4.0,4.3,77,0.00,,,0.00,WUHU216HW,2013-01-10 05:31:00,
2013-01-09 23:36:00,22.7,16.6,30.23,East,90,2.7,4.3,77,0.00,,,0.00,WUHU216HW,2013-01-10 05:36:00,
2013-01-09 23:41:00,22.9,16.4,30.24,ESE,113,2.9,4.0,76,0.00,,,0.00,WUHU216HW,2013-01-10 05:41:00,
2013-01-09 23:46:00,23.0,16.6,30.24,East,90,3.6,3.8,76,0.00,,,0.00,WUHU216HW,2013-01-10 05:46:00,
2013-01-09 23:51:00,23.0,16.9,30.25,ESE,113,4.5,6.7,77,0.00,,,0.00,WUHU216HW,2013-01-10 05:51:00,
2013-01-09 23:56:00,23.4,17.3,30.26,East,90,2.5,6.7,77,0.00,,,0.00,WUHU216HW,2013-01-10 05:56:00,